Location: ??
(35.5090°N, 139.6783°E)
Time: 19:25:54
(UTC+00:00)

OAO 2 Rocket - Pass Details

Date: 08 November 2025
Orbit: 668 x 734 km, 35.0° (Epoch: 08 December)

Event Time Altitude Azimuth Distance (km) Brightness Sun altitude
Rises 09:47:50 0° 236° (SW) 3,088 7.5 -26.3°
Reaches altitude 10° 09:50:18 10° 230° (SW) 2,181 6.5 -26.8°
Enters shadow 09:54:09 39° 190° (S) 1,061 4.2 -27.5°
